Regional Weather Roundup
Issued by NWS Cleveland, OH

Home | Current Version | Previous Version | Graphics & Text | Print | Product List | Glossary On
Versions: 1 2 3 4 5 6 7 8 9 10 11 12 13 14 15 16 17 18 19 20 21 22 23 24 25 26 27 28 29 30 31 32 33 34 35 36 37 38 39 40 41 42 43 44 45 46 47 48 49 50
000
ASUS41 KCLE 231400
RWRCLE
OHIO REGIONAL WEATHER ROUNDUP
NATIONAL WEATHER SERVICE WILMINGTON, OH
900 AM EST THU FEB 23 2017

NOTE: "FAIR" INDICATES FEW OR NO CLOUDS BELOW 12,000 FEET WITH NO
SIGNIFICANT WEATHER AND/OR OBSTRUCTIONS TO VISIBILITY.

OHZ001>008-015>018-024>027-034-035-043-044-231500-
   NORTHWEST OHIO

CITY           SKY/WX    TMP DP  RH WIND       PRES   REMARKS
DEFIANCE       FAIR      54  52  93 SW7       29.75R
FINDLAY        CLOUDY    59  53  80 SW10      29.75R
TOLEDO EXPRESS FAIR      56  54  93 W13       29.73R
TOLEDO EXEC    PTSUNNY   57  54  89 SW14      29.74R
LIMA           FAIR      57  55  93 SW10      29.76R
$$

OHZ009>014-019>023-028>033-038-089-231500-
   NORTHEAST OHIO

CITY           SKY/WX    TMP DP  RH WIND       PRES   REMARKS
CLE-HOPKINS    CLOUDY    62  54  74 SW13      29.77R
CLE-LAKEFRONT  CLOUDY    62  54  74 SW18G28   29.73R
CUY CO. ARPT   CLOUDY    63  55  77 SW17      29.75R
LORAIN-ELYRIA  CLOUDY    59  53  80 SW15      29.75S
ASHTABULA      CLOUDY    57  55  93 S12       29.75S
AKRON-CANTON   CLOUDY    59  54  83 SW13      29.79R HAZE
WOOSTER        NOT AVBL
MANSFIELD      CLOUDY    59  55  87 SW14G21   29.78S
YOUNGSTOWN     CLOUDY    58  54  86 S10G17    29.79S
$$

OHZ042-051>053-060>062-070>072-077>081-231500-
  SOUTHWEST OHIO

CITY           SKY/WX    TMP DP  RH WIND       PRES   REMARKS
CINC-COVINGTON PTSUNNY   60  56  86 SW13      29.82R
CINC-LUNKEN    CLOUDY    60  57  89 S8        29.83R
HAMILTON       FAIR      62  57  83 SW7       29.82R
DAYTON         NOT AVBL
WRIGHT-PAT AFB NOT AVBL
DAYTON GENERAL FAIR      58  56  93 S9        29.80R
WILMINGTON     FAIR      59  56  89 S9        29.82R
$$

OHZ036-037-039>041-045>050-054>059-063>069-073>076-082>088-231500-
  CENTRAL AND SOUTHEAST OHIO

CITY           SKY/WX    TMP DP  RH WIND       PRES   REMARKS
COLUMBUS       FAIR      60  56  86 S10       29.81R
OSU AIRPORT    FAIR      59  57  93 S10       29.80S
BOLTON FIELD   SUNNY     59  55  88 SW13      29.81S
RICKENBACK AFB NOT AVBL
NEWARK         CLOUDY    59  55  87 S8        29.81S
MARION         PTSUNNY   56  54  93 SW9       29.79S FOG
LANCASTER      FAIR      62  56  80 SW9       29.83R
ZANESVILLE     CLOUDY    58  55  90 S9        29.83R
NEW PHILLY     CLOUDY    59  55  87 VRB5      29.82R
$$



USA.gov is the U.S. government's official web portal to all federal, state and local government web resources and services.